FW3267 Weather Reports


Display with metric or nautical units.
time (UTC)temp
F
wind
direction
speed
MPH
gust
MPH
rain 1hr
in
rain 24hr
in
rain mn
in
humidity
%
barometer
mb
20210802174744 80 30 2.0 9.0 0.00 0.00 0.00 55 1019.6
20210802174237 80 23 1.0 9.0 0.00 0.00 0.00 58 1019.6
20210802173732 81 56 0.0 4.0 0.00 0.00 0.00 59 1019.6
20210802173225 80 139 1.0 6.0 0.00 0.00 0.00 59 1019.6
20210802172720 80 6 1.0 6.0 0.00 0.00 0.00 58 1019.7
20210802172214 80 342 0.0 3.0 0.00 0.00 0.00 59 1019.7
20210802171708 80 129 1.0 10.0 0.00 0.00 0.00 57 1019.8
20210802171205 79 141 2.0 10.0 0.00 0.00 0.00 59 1019.9
20210802170656 79 57 1.0 6.0 0.00 0.00 0.00 60 1019.9
20210802170149 79 124 1.0 5.0 0.00 0.00 0.00 62 1020.0
20210802165644 80 5 1.0 7.0 0.00 0.00 0.00 61 1020.1
20210802165137 80 32 1.0 7.0 0.00 0.00 0.00 64 1020.1
20210802164636 80 51 0.0 5.0 0.00 0.00 0.00 61 1020.1
20210802164126 79 70 0.0 4.0 0.00 0.00 0.00 63 1020.3
20210802163619 78 65 0.0 4.0 0.00 0.00 0.00 65 1020.3
20210802163113 78 58 0.0 3.0 0.00 0.00 0.00 67 1020.3
20210802162608 77 39 0.0 3.0 0.00 0.00 0.00 63 1020.3
20210802162101 78 70 0.0 3.0 0.00 0.00 0.00 64 1020.3
20210802161556 78 25 0.0 2.0 0.00 0.00 0.00 65 1020.4
20210802161050 79 132 0.0 4.0 0.00 0.00 0.00 64 1020.4
20210802160544 78 135 0.0 4.0 0.00 0.00 0.00 67 1020.4
20210802160038 78 167 0.0 1.0 0.00 0.00 0.00 67 1020.3
20210802155531 78 51 0.0 4.0 0.00 0.00 0.00 68 1020.4
20210802155026 77 136 1.0 5.0 0.00 0.00 0.00 69 1020.4
20210802154520 77 44 1.0 5.0 0.00 0.00 0.00 71 1020.4
20210802154021 77 61 1.0 5.0 0.00 0.00 0.00 72 1020.5
20210802153518 76 15 1.0 5.0 0.00 0.00 0.00 71 1020.5
20210802153020 77 65 1.0 5.0 0.00 0.00 0.00 72 1020.4
20210802152517 77 142 0.0 4.0 0.00 0.00 0.00 74 1020.4
20210802152018 76 41 0.0 4.0 0.00 0.00 0.00 76 1020.4
20210802151516 75 134 0.0 4.0 0.00 0.00 0.00 74 1020.4
20210802151017 76 54 0.0 4.0 0.00 0.00 0.00 76 1020.4
20210802150518 75 15 0.0 3.0 0.00 0.00 0.00 76 1020.5
20210802150016 75 67 0.0 3.0 0.00 0.00 0.00 77 1020.4
20210802145519 76 77 0.0 3.0 0.00 0.00 0.00 77 1020.5
20210802145016 76 34 0.0 2.0 0.00 0.00 0.00 76 1020.4
20210802144516 76 82 0.0 1.0 0.00 0.00 0.00 77 1020.5
20210802144012 75 124 0.0 1.0 0.00 0.00 0.00 79 1020.6
20210802143515 74 87 0.0 5.0 0.00 0.00 0.00 80 1020.6
20210802143013 74 95 0.0 5.0 0.00 0.00 0.00 82 1020.6
20210802142013 73 56 1.0 4.0 0.00 0.00 0.00 84 1020.5
20210802141509 72 53 1.0 4.0 0.00 0.00 0.00 82 1020.6
20210802141008 72 84 0.0 4.0 0.00 0.00 0.00 85 1020.6
20210802140508 72 52 0.0 4.0 0.00 0.00 0.00 86 1020.6
20210802140009 71 53 1.0 5.0 0.00 0.00 0.00 86 1020.7
20210802135510 71 51 1.0 5.0 0.00 0.00 0.00 86 1020.7
20210802135009 71 78 0.0 1.0 0.00 0.00 0.00 89 1020.7
20210802134509 70 58 0.0 1.0 0.00 0.00 0.00 90 1020.6
20210802134010 70 95 0.0 0.0 0.00 0.00 0.00 91 1020.7
20210802133508 69 125 0.0 0.0 0.00 0.00 0.00 93 1020.7
20210802133008 69 345 0.0 0.0 0.00 0.00 0.00 94 1020.7
20210802132509 68 325 0.0 0.0 0.00 0.00 0.00 94 1020.6
20210802132004 67 325 0.0 0.0 0.00 0.00 0.00 95 1020.6
20210802131504 66 327 0.0 0.0 0.00 0.00 0.00 95 1020.5
20210802131007 66 330 0.0 0.0 0.00 0.00 0.00 95 1020.5
20210802130504 66 334 0.0 0.0 0.00 0.00 0.00 95 1020.5
20210802130003 66 334 0.0 0.0 0.00 0.00 0.00 95 1020.5
20210802125503 65 331 0.0 0.0 0.00 0.00 0.00 95 1020.4
20210802125002 65 332 0.0 0.0 0.00 0.00 0.00 95 1020.4
20210802124503 65 334 0.0 0.0 0.00 0.00 0.00 95 1020.3
20210802124004 65 335 0.0 0.0 0.00 0.00 0.00 95 1020.4
20210802123459 65 314 0.0 0.0 0.00 0.00 0.00 95 1020.3
20210802122959 65 12 0.0 0.0 0.00 0.00 0.00 95 1020.3
20210802122503 64 12 0.0 0.0 0.00 0.00 0.00 95 1020.1
20210802122000 65 16 0.0 0.0 0.00 0.00 0.00 95 1020.1
20210802121459 65 16 0.0 0.0 0.00 0.00 0.00 95 1020.1
20210802121000 64 17 0.0 0.0 0.00 0.00 0.00 95 1020.1
20210802120459 64 16 0.0 0.0 0.00 0.00 0.00 95 1020.0
20210802115959 63 17 0.0 0.0 0.00 0.00 0.00 95 1020.0
20210802115501 63 16 0.0 0.0 0.00 0.00 0.00 95 1020.0
20210802114954 63 269 0.0 0.0 0.00 0.00 0.00 95 1020.0
20210802114456 63 269 0.0 0.0 0.00 0.00 0.00 95 1020.0
20210802113954 63 269 0.0 0.0 0.00 0.00 0.00 95 1020.0
20210802113456 63 269 0.0 0.0 0.00 0.00 0.00 95 1020.0
20210802112959 63 269 0.0 0.0 0.00 0.00 0.00 95 1019.9
20210802112456 63 269 0.0 0.0 0.00 0.00 0.00 95 1019.8
20210802111957 63 269 0.0 0.0 0.00 0.00 0.00 95 1019.9
20210802111458 63 269 0.0 0.0 0.00 0.00 0.00 95 1019.8
20210802110958 63 269 0.0 0.0 0.00 0.00 0.00 95 1019.8
20210802110454 63 269 0.0 0.0 0.00 0.00 0.00 95 1019.7
20210802105952 63 269 0.0 0.0 0.00 0.00 0.00 95 1019.7
20210802105452 63 269 0.0 0.0 0.00 0.00 0.00 95 1019.6
20210802104951 63 269 0.0 0.0 0.00 0.00 0.00 95 1019.6
20210802104451 63 269 0.0 0.0 0.00 0.00 0.00 95 1019.6
20210802103952 63 269 0.0 0.0 0.00 0.00 0.00 95 1019.6
20210802103452 63 269 0.0 0.0 0.00 0.00 0.00 95 1019.5
20210802102951 64 269 0.0 0.0 0.00 0.00 0.00 95 1019.5
20210802102448 64 269 0.0 0.0 0.00 0.00 0.00 95 1019.4
20210802101950 64 269 0.0 0.0 0.00 0.00 0.00 95 1019.5
20210802101445 64 269 0.0 0.0 0.00 0.00 0.00 95 1019.5
20210802100946 64 269 0.0 0.0 0.00 0.00 0.00 95 1019.5
20210802100443 64 269 0.0 0.0 0.00 0.00 0.00 95 1019.5
20210802095944 64 268 0.0 0.0 0.00 0.00 0.00 95 1019.5
20210802095442 64 269 0.0 0.0 0.00 0.00 0.00 95 1019.5
20210802094944 64 269 0.0 0.0 0.00 0.00 0.00 95 1019.6
20210802094443 65 269 0.0 0.0 0.00 0.00 0.00 95 1019.5
20210802093942 65 269 0.0 0.0 0.00 0.00 0.00 95 1019.6
20210802093440 65 269 0.0 0.0 0.00 0.00 0.00 95 1019.6
20210802092939 65 269 0.0 0.0 0.00 0.00 0.00 95 1019.7
20210802092435 65 269 0.0 0.0 0.00 0.00 0.00 95 1019.6
20210802091939 65 269 0.0 0.0 0.00 0.00 0.00 95 1019.6
20210802091435 65 269 0.0 0.0 0.00 0.00 0.00 95 1019.5
20210802090933 65 266 0.0 0.0 0.00 0.00 0.00 94 1019.4
20210802090433 65 288 0.0 0.0 0.00 0.00 0.00 95 1019.4
20210802085933 65 128 0.0 0.0 0.00 0.00 0.00 95 1019.4
20210802085427 65 128 0.0 0.0 0.00 0.00 0.00 94 1019.4
20210802084922 65 130 0.0 0.0 0.00 0.00 0.00 95 1019.4
20210802084417 65 128 0.0 0.0 0.00 0.00 0.00 94 1019.4
20210802083910 65 128 0.0 0.0 0.00 0.00 0.00 94 1019.4
20210802083403 65 128 0.0 0.0 0.00 0.00 0.00 95 1019.4
20210802082857 65 129 0.0 0.0 0.00 0.00 0.00 94 1019.4
20210802082351 65 148 0.0 0.0 0.00 0.00 0.00 94 1019.4
20210802081845 65 150 0.0 0.0 0.00 0.00 0.00 94 1019.3
20210802081339 65 316 0.0 0.0 0.00 0.00 0.00 94 1019.2
20210802080833 65 316 0.0 0.0 0.00 0.00 0.00 94 1019.2
20210802080327 66 316 0.0 0.0 0.00 0.00 0.00 94 1019.4
20210802075827 66 321 0.0 0.0 0.00 0.00 0.00 94 1019.4
20210802075315 66 321 0.0 0.0 0.00 0.00 0.00 94 1019.2
20210802074809 66 322 0.0 0.0 0.00 0.00 0.00 94 1019.2
20210802074304 66 10 0.0 0.0 0.00 0.00 0.00 94 1019.2
20210802073757 66 11 0.0 0.0 0.00 0.00 0.00 94 1019.1
20210802073252 66 11 0.0 0.0 0.00 0.00 0.00 94 1019.1
20210802072745 66 0 0.0 0.0 0.00 0.00 0.00 94 1019.1
20210802072239 66 269 0.0 0.0 0.00 0.00 0.00 94 1019.1
20210802071732 66 269 0.0 0.0 0.00 0.00 0.00 94 1019.1
20210802071227 66 266 0.0 0.0 0.00 0.00 0.00 94 1019.0
20210802070721 66 266 0.0 0.0 0.00 0.00 0.00 94 1019.0
20210802070218 66 37 0.0 0.0 0.00 0.00 0.00 94 1019.0
20210802065712 66 37 0.0 0.0 0.00 0.00 0.00 94 1019.0
20210802065203 66 37 0.0 0.0 0.00 0.00 0.00 94 1019.0
20210802064700 66 355 0.0 0.0 0.00 0.00 0.00 95 1019.1
20210802064152 66 274 0.0 0.0 0.00 0.00 0.00 95 1019.1
20210802063655 66 274 0.0 0.0 0.00 0.00 0.00 94 1019.2
20210802063148 66 274 0.0 0.0 0.00 0.00 0.00 94 1019.2
20210802062648 66 274 0.0 0.0 0.00 0.00 0.00 94 1019.3
20210802062145 66 274 0.0 0.0 0.00 0.00 0.00 94 1019.2
20210802061645 67 274 0.0 0.0 0.00 0.00 0.00 94 1019.3
20210802061142 67 274 0.0 0.0 0.00 0.00 0.00 94 1019.3
20210802060640 67 274 0.0 0.0 0.00 0.00 0.00 94 1019.2
20210802060141 67 274 0.0 0.0 0.00 0.00 0.00 94 1019.2
20210802055639 67 273 0.0 0.0 0.00 0.00 0.00 94 1019.3
20210802055137 67 273 0.0 0.0 0.00 0.00 0.00 94 1019.4
20210802054634 67 306 0.0 0.0 0.00 0.00 0.00 94 1019.4
20210802054133 67 329 0.0 0.0 0.00 0.00 0.00 94 1019.5
20210802053635 67 345 0.0 0.0 0.00 0.00 0.00 94 1019.5
20210802053134 67 345 0.0 0.0 0.00 0.00 0.00 93 1019.5
20210802052630 67 345 0.0 0.0 0.00 0.00 0.00 93 1019.5
20210802052128 67 345 0.0 0.0 0.00 0.00 0.00 93 1019.5
20210802051629 67 345 0.0 0.0 0.00 0.00 0.00 93 1019.5
20210802051133 67 255 0.0 0.0 0.00 0.00 0.00 92 1019.4
20210802050631 68 255 0.0 0.0 0.00 0.00 0.00 92 1019.4
20210802050123 68 255 0.0 0.0 0.00 0.00 0.00 92 1019.3
20210802045617 68 255 0.0 0.0 0.00 0.00 0.00 92 1019.3
20210802045118 68 255 0.0 0.0 0.00 0.00 0.00 91 1019.3
20210802044615 69 255 0.0 0.0 0.00 0.00 0.00 91 1019.2
20210802044112 69 255 0.0 0.0 0.00 0.00 0.00 91 1019.3
20210802043612 69 255 0.0 0.0 0.00 0.00 0.00 91 1019.3
20210802043109 69 248 0.0 0.0 0.00 0.00 0.00 90 1019.2
20210802042609 69 225 0.0 0.0 0.00 0.00 0.00 90 1019.3
20210802042106 69 208 0.0 0.0 0.00 0.00 0.00 90 1019.3
20210802041604 70 252 0.0 0.0 0.00 0.00 0.00 89 1019.3
20210802041103 70 246 0.0 0.0 0.00 0.00 0.00 88 1019.2
20210802040607 71 8 0.0 0.0 0.00 0.00 0.00 87 1019.2
20210802040106 71 342 0.0 1.0 0.00 0.00 0.00 86 1019.2
20210802035603 71 41 0.0 1.0 0.00 0.00 0.00 86 1019.1
20210802035104 71 34 0.0 2.0 0.00 0.00 0.00 86 1019.1
20210802034605 71 47 0.0 2.0 0.00 0.00 0.00 86 1019.1
20210802034105 71 56 0.0 1.0 0.00 0.00 0.00 86 1019.0
20210802033604 71 32 0.0 2.0 0.00 0.00 0.00 85 1018.9
20210802033057 72 43 0.0 2.0 0.00 0.00 0.00 85 1019.0
20210802032550 72 47 0.0 4.0 0.00 0.00 0.00 85 1018.9
20210802032045 72 87 0.0 4.0 0.00 0.00 0.00 85 1018.9
20210802031538 72 56 0.0 3.0 0.00 0.00 0.00 86 1018.9
20210802031032 71 56 0.0 3.0 0.00 0.00 0.00 86 1018.9
20210802030526 71 49 0.0 3.0 0.00 0.00 0.00 87 1018.8
20210802030020 71 25 0.0 0.0 0.00 0.00 0.00 87 1018.8
20210802025514 71 63 0.0 0.0 0.00 0.00 0.00 87 1018.7
20210802025011 71 77 0.0 0.0 0.00 0.00 0.00 87 1018.6
20210802024502 71 65 0.0 0.0 0.00 0.00 0.00 87 1018.5
20210802023957 71 60 0.0 0.0 0.00 0.00 0.00 87 1018.5
20210802023453 71 26 0.0 0.0 0.00 0.00 0.00 87 1018.4
20210802022947 71 51 0.0 1.0 0.00 0.00 0.00 87 1018.4
20210802022439 71 56 0.0 1.0 0.00 0.00 0.00 88 1018.3
20210802021932 71 56 0.0 0.0 0.00 0.00 0.00 89 1018.3
20210802021426 71 19 0.0 0.0 0.00 0.00 0.00 89 1018.2
20210802020920 71 266 0.0 0.0 0.00 0.00 0.00 89 1018.2
20210802020413 71 263 0.0 0.0 0.00 0.00 0.00 88 1018.1
20210802015911 71 263 0.0 0.0 0.00 0.00 0.00 88 1018.2
20210802015402 72 255 0.0 0.0 0.00 0.00 0.00 87 1018.1
20210802014858 72 256 0.0 0.0 0.00 0.00 0.00 86 1018.0
20210802014350 73 255 0.0 0.0 0.00 0.00 0.00 86 1018.0
20210802013845 73 356 0.0 0.0 0.00 0.00 0.00 84 1017.9
20210802013338 73 356 0.0 0.0 0.00 0.00 0.00 83 1017.7
20210802012832 74 355 0.0 0.0 0.00 0.00 0.00 82 1017.7
20210802012326 74 356 0.0 0.0 0.00 0.00 0.00 81 1017.7
20210802011821 74 356 0.0 0.0 0.00 0.00 0.00 80 1017.7
20210802011314 75 51 0.0 0.0 0.00 0.00 0.00 78 1017.7
20210802010808 75 51 0.0 0.0 0.00 0.00 0.00 77 1017.7
20210802010305 76 51 0.0 0.0 0.00 0.00 0.00 76 1017.6
20210802005756 76 51 0.0 0.0 0.00 0.00 0.00 75 1017.6
20210802005250 76 51 0.0 0.0 0.00 0.00 0.00 75 1017.7
20210802004744 77 51 0.0 0.0 0.00 0.00 0.00 75 1017.6
20210802004238 77 51 0.0 0.0 0.00 0.01 0.00 74 1017.6
20210802003733 78 49 0.0 0.0 0.00 0.01 0.00 73 1017.7
20210802003233 78 47 0.0 0.0 0.00 0.01 0.00 71 1017.6
20210802002730 78 20 0.0 0.0 0.00 0.01 0.00 71 1017.6
20210802002229 79 37 0.0 0.0 0.00 0.01 0.00 70 1017.5
20210802001727 79 49 0.0 1.0 0.00 0.01 0.00 68 1017.5
20210802001223 79 51 1.0 5.0 0.00 0.01 0.00 68 1017.4
20210802000723 79 26 1.0 5.0 0.00 0.01 0.00 67 1017.4
20210802000219 80 48 0.0 2.0 0.00 0.01 0.00 68 1017.3
20210801235721 80 39 0.0 2.0 0.00 0.01 0.00 67 1017.4
20210801235219 80 32 0.0 4.0 0.00 0.01 0.00 67 1017.3
20210801234720 80 354 0.0 4.0 0.00 0.01 0.00 67 1017.3
20210801234224 80 13 0.0 2.0 0.00 0.01 0.00 67 1017.4
20210801233720 80 328 0.0 2.0 0.00 0.01 0.00 68 1017.3
20210801233217 80 329 0.0 3.0 0.00 0.01 0.00 64 1017.2
20210801232717 81 5 1.0 3.0 0.00 0.01 0.00 65 1017.2
20210801232215 81 319 0.0 3.0 0.00 0.01 0.00 65 1017.2
20210801231715 81 314 0.0 3.0 0.00 0.01 0.00 65 1017.2
20210801231217 81 332 0.0 3.0 0.00 0.01 0.00 63 1017.3
20210801230711 81 322 1.0 3.0 0.00 0.01 0.00 62 1017.3
20210801230205 82 328 1.0 6.0 0.00 0.01 0.00 60 1017.3
20210801225659 82 311 1.0 6.0 0.00 0.01 0.00 62 1017.4
20210801225154 82 34 3.0 9.0 0.00 0.01 0.00 58 1017.4
20210801224648 82 26 4.0 9.0 0.00 0.01 0.00 56 1017.4
20210801224142 82 346 3.0 9.0 0.00 0.01 0.00 58 1017.4
20210801223636 82 342 3.0 9.0 0.00 0.01 0.00 61 1017.3
20210801223130 82 18 4.0 11.0 0.00 0.01 0.00 60 1017.3
20210801222623 82 8 4.0 11.0 0.00 0.01 0.00 59 1017.3
20210801222117 82 326 4.0 9.0 0.00 0.01 0.00 61 1017.3
20210801221612 82 342 4.0 9.0 0.00 0.01 0.00 63 1017.3
20210801221106 82 327 4.0 11.0 0.00 0.01 0.00 60 1017.2
20210801220600 82 15 5.0 11.0 0.00 0.01 0.00 60 1017.2
20210801220054 82 325 4.0 11.0 0.00 0.01 0.00 63 1017.3
20210801215548 82 336 5.0 11.0 0.00 0.01 0.00 65 1017.3
20210801215042 82 347 4.0 12.0 0.00 0.01 0.00 65 1017.3
20210801214535 82 346 2.0 12.0 0.00 0.01 0.00 62 1017.3
20210801214029 83 326 2.0 8.0 0.00 0.01 0.00 63 1017.3
20210801213525 83 340 2.0 8.0 0.00 0.01 0.00 59 1017.3
20210801213017 84 340 1.0 7.0 0.00 0.01 0.00 62 1017.3
20210801212512 83 321 1.0 6.0 0.00 0.01 0.00 61 1017.3
20210801212005 83 9 2.0 8.0 0.00 0.01 0.00 58 1017.4
20210801211459 84 308 1.0 8.0 0.00 0.01 0.00 58 1017.3
20210801210953 83 302 1.0 6.0 0.00 0.01 0.00 60 1017.4
20210801210448 84 324 0.0 6.0 0.00 0.01 0.00 60 1017.4
20210801205941 84 322 0.0 4.0 0.00 0.03 0.00 62 1017.3
20210801205436 84 29 1.0 4.0 0.00 0.20 0.00 57 1017.4
20210801204930 84 340 0.0 4.0 0.00 0.22 0.00 59 1017.5
20210801204424 84 47 1.0 3.0 0.00 0.22 0.00 60 1017.5
20210801203920 83 304 1.0 6.0 0.00 0.22 0.00 64 1017.5
20210801203413 83 8 2.0 6.0 0.00 0.22 0.00 61 1017.6
20210801202905 82 331 2.0 6.0 0.00 0.22 0.00 64 1017.6
20210801202400 82 1 1.0 6.0 0.00 0.22 0.00 63 1017.6
20210801201853 81 345 0.0 3.0 0.00 0.22 0.00 67 1017.7
20210801201350 81 289 1.0 7.0 0.00 0.22 0.00 65 1017.7
20210801200840 82 56 2.0 8.0 0.00 0.22 0.00 62 1017.9
20210801200336 83 30 2.0 8.0 0.00 0.22 0.00 62 1017.9
20210801195829 84 53 1.0 6.0 0.00 0.22 0.00 60 1017.9
20210801195324 84 293 1.0 7.0 0.00 0.22 0.00 63 1018.0
20210801194821 83 298 2.0 7.0 0.00 0.22 0.00 58 1018.0
20210801194312 83 293 1.0 7.0 0.00 0.22 0.00 61 1018.0
20210801193806 83 304 1.0 7.0 0.00 0.22 0.00 62 1018.1
20210801193301 83 307 1.0 6.0 0.00 0.22 0.00 60 1018.0
20210801192753 83 260 1.0 6.0 0.00 0.22 0.00 65 1018.1
20210801192248 83 311 1.0 6.0 0.00 0.22 0.00 64 1018.1
20210801191742 82 314 1.0 6.0 0.00 0.22 0.00 63 1018.1
20210801191236 82 314 1.0 6.0 0.00 0.22 0.00 66 1018.1
20210801190730 82 267 0.0 4.0 0.00 0.22 0.00 66 1018.1
20210801190224 82 311 0.0 3.0 0.00 0.22 0.00 68 1018.1
20210801185717 82 279 1.0 7.0 0.00 0.22 0.00 67 1018.2
20210801185211 81 295 2.0 7.0 0.00 0.22 0.00 64 1018.3
20210801184705 81 304 2.0 7.0 0.00 0.22 0.00 69 1018.3
20210801184159 81 11 3.0 7.0 0.00 0.22 0.00 66 1018.3
20210801183654 81 53 2.0 7.0 0.00 0.22 0.00 69 1018.2
20210801183148 81 20 1.0 5.0 0.00 0.22 0.00 68 1018.2
20210801182642 80 0 0.0 2.0 0.00 0.22 0.00 70 1018.3
20210801182136 80 359 1.0 5.0 0.00 0.22 0.00 70 1018.3
20210801181630 80 298 1.0 5.0 0.00 0.22 0.00 69 1018.4
20210801181123 81 338 2.0 7.0 0.00 0.22 0.00 71 1018.5
20210801180617 81 359 2.0 7.0 0.00 0.22 0.00 68 1018.5
20210801180111 81 353 1.0 5.0 0.00 0.22 0.00 69 1018.5
20210801175605 81 256 1.0 5.0 0.00 0.22 0.00 69 1018.6
20210801175059 81 285 0.0 4.0 0.00 0.22 0.00 68 1018.5